Date,TemperatureHighF,TemperatureAvgF,TemperatureLowF,DewpointHighF,DewpointAvgF,DewpointLowF,HumidityHigh,HumidityAvg,HumidityLow,PressureMaxIn,PressureMinIn,WindSpeedMaxMPH,WindSpeedAvgMPH,GustSpeedMaxMPH,PrecipitationSumIn
2013-1-2,-200.0,0.0,200.0,-99.9,-99.9,-99.9,0,0,100,30.10,30.10,0,0,6,0.00
2013-1-7,68.3,68.1,67.8,48.1,47.5,46.6,49,48,46,30.15,30.13,0,0,0,0.00
2013-1-8,68.9,64.7,52.0,52.6,49.2,46.7,84,58,49,30.21,30.10,1,0,1,0.01
2013-1-9,63.1,62.1,61.3,46.2,45.5,44.5,55,54,54,30.09,30.05,0,0,0,0.00
2013-1-23,70.3,69.8,69.0,47.9,47.2,46.2,45,45,44,30.01,29.97,0,0,0,0.00
2013-1-24,70.7,69.7,67.6,51.1,50.2,48.8,51,50,49,30.13,30.09,0,0,0,0.00
2013-1-25,71.6,70.0,68.0,53.2,52.0,50.5,54,53,52,30.15,30.02,0,0,0,0.00
2013-1-30,63.6,4.9,63.6,-99.9,-99.9,-99.9,0,0,100,30.26,30.23,0,-922,3,0.00
2013-1-31,65.0,15.8,65.0,46.9,-64.3,-99.9,52,15,46,30.27,30.16,3,-729,3,0.00
2013-2-12,69.9,68.9,67.4,48.4,47.8,47.0,48,47,46,30.33,30.26,0,0,0,0.00
2013-2-13,53.8,18.6,51.3,48.2,-47.6,-99.9,86,29,78,30.32,30.19,6,1,8,0.00
2013-2-19,65.8,63.4,62.6,47.1,45.0,43.7,54,51,47,29.82,29.75,3,0,6,0.04
2013-2-20,60.4,1.5,60.4,41.7,-96.3,-99.9,50,1,50,29.99,29.95,0,-973,6,0.00
2013-2-22,71.7,71.7,71.7,-21.4,-21.4,-21.4,2,2,2,30.19,30.19,0,0,0,0.00
2013-2-25,69.4,68.7,67.4,18.1,14.4,8.9,14,12,10,30.22,30.16,0,0,0,0.00
2013-2-26,77.5,71.5,65.2,17.4,-31.0,-99.9,15,7,1,30.20,30.12,0,0,0,0.00
2013-3-8,69.8,68.4,66.2,46.9,45.3,43.6,48,44,41,29.90,29.87,0,0,0,0.00
2013-3-11,69.6,68.9,67.6,48.2,46.8,44.9,47,45,44,30.22,30.12,0,0,0,0.00
2013-3-21,67.7,67.6,67.5,46.2,45.9,45.5,46,46,45,30.01,30.00,0,0,0,0.00
2013-3-25,-200.0,0.0,200.0,-99.9,-99.9,-99.9,0,0,100,30.02,29.96,0,-888,0,0.00
2013-3-26,-200.0,0.0,200.0,-99.9,-99.9,-99.9,0,0,100,30.02,30.02,0,-999,0,0.00
2013-3-28,-200.0,0.0,200.0,-99.9,-99.9,-99.9,0,0,100,30.02,30.02,0,-999,0,0.00
2013-3-29,75.7,10.5,70.0,39.6,-82.8,-99.9,32,4,24,30.04,29.99,12,-852,16,0.00
2013-4-1,73.9,73.2,70.9,33.7,27.8,25.7,23,19,17,30.13,30.10,0,0,0,0.00
2013-4-2,72.9,50.3,59.4,52.6,6.8,-99.9,54,37,49,30.16,30.08,0,-272,0,0.06
2013-4-3,73.5,56.5,70.7,55.0,20.8,-99.9,55,42,43,30.11,29.96,0,-214,0,0.05
2013-4-4,71.6,70.4,69.6,53.5,52.3,51.3,54,53,51,30.07,30.03,0,0,0,0.00
2013-4-10,71.1,70.8,70.6,51.5,51.2,51.1,50,50,50,30.14,30.11,0,0,0,0.06
2013-4-16,-200.0,0.0,200.0,-99.9,-99.9,-99.9,0,0,100,30.02,30.02,0,-999,1,0.00
2013-4-24,-200.0,0.0,200.0,-99.9,-99.9,-99.9,0,0,100,29.85,29.83,0,-999,0,0.00
2013-4-25,-200.0,0.0,200.0,-99.9,-99.9,-99.9,0,0,100,30.06,30.02,0,-999,0,0.00
2013-4-26,-200.0,0.0,200.0,-99.9,-99.9,-99.9,0,0,100,30.21,30.19,0,-999,0,0.00
2013-4-30,-200.0,0.0,200.0,-99.9,-99.9,-99.9,0,0,100,29.83,29.81,0,-999,0,0.00
2013-5-6,72.3,69.6,71.0,53.5,48.0,-99.9,52,49,50,29.85,-32.77,0,-28,0,0.00
2013-5-7,71.1,71.1,71.1,52.6,52.4,52.0,52,52,51,30.00,30.00,0,0,0,0.00
2013-5-15,76.8,74.3,69.4,52.0,50.3,48.6,49,43,38,30.06,30.03,0,0,12,0.00
2013-5-20,73.5,72.5,71.3,54.7,52.4,51.1,53,49,46,29.98,29.95,0,0,12,0.00
2013-5-22,72.4,72.1,71.5,43.2,42.6,42.1,35,35,34,29.95,29.92,0,0,0,0.00
2013-5-23,72.9,70.5,67.0,46.9,45.3,43.8,43,40,38,29.98,29.94,0,0,0,0.00
2013-5-24,71.0,69.7,68.7,47.4,46.6,45.9,44,44,43,29.99,29.98,0,0,0,0.00
2013-6-3,69.8,68.5,66.8,56.6,55.4,54.5,66,63,60,29.78,29.77,12,10,22,0.00
2013-6-4,72.0,71.5,71.1,53.4,52.9,52.3,52,52,51,29.92,29.89,0,0,22,0.00
2013-6-6,73.5,64.2,73.3,55.2,35.7,-99.9,53,46,52,29.85,29.84,0,0,0,0.00
2013-6-7,75.5,72.6,70.6,58.2,54.9,52.1,55,54,52,29.85,29.72,0,0,0,0.00
2013-6-10,75.0,72.9,71.4,56.6,54.8,53.4,54,53,52,29.91,29.87,0,0,0,0.00
2013-6-11,74.9,73.1,71.7,56.4,54.6,52.6,54,52,51,29.97,29.91,0,0,0,0.00
2013-6-12,70.5,70.4,70.4,52.5,52.4,52.4,53,53,53,29.95,29.94,0,0,0,0.00
2013-6-13,73.2,72.1,70.2,52.9,51.7,50.2,50,49,48,30.07,30.02,0,0,0,0.06
2013-6-14,76.5,73.2,69.6,54.2,52.3,50.1,51,48,45,29.92,29.83,0,0,0,0.01
2013-6-17,71.1,70.4,69.8,53.1,52.1,51.2,54,52,51,30.08,30.07,0,0,0,0.00
2013-6-18,72.8,71.1,69.7,55.7,54.2,52.8,56,55,55,30.03,30.01,0,0,0,0.00